Preview of NWS' New Version of Forecast
This preview is not operational and should not be used for support decisions.

Regional Weather Roundup (RWR)

Issued by National Weather Service (NWS)

                            
000
ASUS45 KBOU 152010
RWRCO 

WEATHER ROUNDUP FOR COLORADO
NATIONAL WEATHER SERVICE DENVER/BOULDER CO
100 PM MST FRI FEB 15 2019

NOTE: "FAIR" INDICATES FEW OR NO CLOUDS BELOW 12000 FEET WITH NO
SIGNIFICANT WEATHER AND/OR OBSTRUCTIONS TO VISIBILITY.

COZ001>005-013-030-031-152100-
...NORTHWEST COLORADO...
  
CITY           SKY/WX    TMP DP  RH WIND       PRES   REMARKS
CRAIG          CLOUDY    39  29  67 VRB3      29.81F                  
HAYDEN         PTSUNNY   38  26  62 NW8       29.81F                  
MEEKER         CLOUDY    43  26  51 SW14G23   29.82F                  
RANGELY        CLOUDY    37  32  81 CALM      29.82F                  
RABBIT EARS PA MOCLDY   N/A N/A N/A W8G18     29.82F                  
STEAMBOAT SPGS PTSUNNY   39  23  51 N5        29.80F                  
WALDEN         FAIR      34  19  55 SW15G24   29.80S WCI  24          
$$

COZ006>008-011-152100-
...WEST CENTRAL VALLEYS...
  
CITY           SKY/WX    TMP DP  RH WIND       PRES   REMARKS
GRAND JUNCTION FAIR      47  40  76 N8        29.85F                  
MONTROSE       FAIR      47  32  56 VRB3      29.90F                  
EAGLE          FAIR      42  27  55 W15       29.85F                  
RIFLE          FAIR      43  32  65 W6        29.84F                  
DELTA          PTSUNNY   51  34  51 SW7       29.89F                  
NUCLA          NOT AVBL                                               
$$

COZ017>023-064>068-152100-
...SOUTHWEST COLORADO...
  
CITY           SKY/WX    TMP DP  RH WIND       PRES   REMARKS
DURANGO        FAIR      38  32  79 E7        29.98F                  
CORTEZ         FAIR      43  28  55 NW5       29.97F                  
PAGOSA SPRINGS NOT AVBL                                               
TELLURIDE      FAIR      36  18  48 S14G22    29.95F                  
WOLF CREEK PAS CLOUDY    19  19 100 S18G30    30.02F WCI   4          
$$

COZ009-010-012-014-032>034-037-058>063-152100-
...CENTRAL COLORADO...
  
CITY           SKY/WX    TMP DP  RH WIND       PRES   REMARKS
ASPEN          FAIR      43  23  45 N6        29.82F                  
BUENA VISTA    FAIR      42  18  38 SW3       29.85S                  
COPPER MTN     PTSUNNY   27  14  59 SW13G21   29.88F WCI  16          
BERTHOUD PASS  FAIR      19   9  63 W23G38    29.84F WCI   2          
COTTONWOOD PAS PTSUNNY   36  18  48 W8G21     29.88S                  
GUNNISON       FAIR      39  23  52 SW6       29.89F                  
GRANBY         FAIR      36  19  50 W16G22    29.83F                  
KREMMLING      FAIR      39  25  56 SW15G22   29.82F                  
LEADVILLE      FAIR      34  17  50 VRB3      29.83F                  
MONARCH PASS   CLOUDY    19  18  93 MISG      30.01F                  
SALIDA         FAIR      46  19  33 W20G26    29.93F                  
SUNLIGHT       CLOUDY    27  23  86 MISG      29.91F                  
WILKERSON PASS CLOUDY    28  21  74 SW7G16    29.91S WCI  21          
$$

COZ069>075-152100-
...SAN LUIS VALLEY/SANGRE DE CRISTO MOUNTAINS...
  
CITY           SKY/WX    TMP DP  RH WIND       PRES   REMARKS
ALAMOSA        FAIR      41  31  67 S13       29.90F                  
DEL NORTE      FAIR      39  26  59 SE3       29.91F                  
LA VETA PASS   NOT AVBL                                               
SAGUACHE       FAIR      37  30  75 CALM      29.91F                  
$$

COZ035-036-038>040-152100-
...NORTHERN COLORADO FRONT RANGE...
  
CITY           SKY/WX    TMP DP  RH WIND       PRES   REMARKS
DENVER INTL AP FAIR      54  20  26 NW10      29.67F                  
AURORA         MOSUNNY   56  19  24 NW9       29.67F                  
FRONT RANGE AP MOSUNNY   52  25  35 NE6       29.68F                  
ERIE MUNI ARPT FAIR      51  23  33 N8        29.71F                  
BOULDER MUN AP FAIR      54  18  24 E6G23     29.64F                  
CENTENNIAL     FAIR      56  15  20 NW18G25   29.67S                  
BROOMFIELD     MOSUNNY   55  18  22 NW6       29.67F                  
FORT COLLINS   FAIR      45  21  38 SE9       29.67F                  
LONGMONT       FAIR      48  21  34 E7        29.68F                  
$$

COZ041-046-047-076>085-087-088-152100-
...PIKES PEAK/PALMER DIVIDE AND SOUTHERN FOOTHILLS...
  
CITY           SKY/WX    TMP DP  RH WIND       PRES   REMARKS
COLO. SPRINGS  FAIR      51  21  30 SE10      29.70F                  
A. F. ACADEMY  FAIR      54  10  17 W37G46    29.67S                  
SCHRIEVER AFB  NOT AVBL                                               
CHEYENNE MTN   FAIR      48  22  35 CALM      29.66F                  
ELLICOTT       NOT AVBL                                               
FALCON         FAIR      55   7  14 W26G38    29.72S                  
FORT CARSON    FAIR      49  23  36 SE7       29.68F                  
LIMON          FAIR      49  22  34 SE10      29.69F                  
MONUMENT HILL  FAIR      46  23  39 W10G17    29.73S                  
CANON CITY     FAIR      61  21  21 W15G31    29.74F                  
WALSENBURG     NOT AVBL                                               
TRINIDAD       FAIR      61  17  18 W21G29    29.74F                  
$$

COZ042>045-048>051-090-091-152100-
...NORTHEAST COLORADO...
  
CITY           SKY/WX    TMP DP  RH WIND       PRES   REMARKS
GREELEY ARPT   FAIR      44  22  41 SE12      29.68F                  
AKRON          FAIR      42  23  46 S14       29.71F                  
BURLINGTON     FAIR      30  17  58 S10       29.79F WCI  21          
WRAY           FAIR      32  14  47 SE13G18   29.81F WCI  22          
YUMA           NOT AVBL                                               
STERLING       FAIR      41  21  45 S14       29.72F                  
HOLYOKE        FAIR      30  18  59 S16G22    29.82F WCI  19          
FORT MORGAN      N/A     45  20  37 S6        29.70F                  
$$

COZ086-089-092>099-152100-
...SOUTHEAST COLORADO...
  
CITY           SKY/WX    TMP DP  RH WIND       PRES   REMARKS
PUEBLO         FAIR      63  23  21 NW24G30   29.69F                  
LA JUNTA       FAIR      41  22  46 E5        29.74F                  
LAMAR          FAIR      33  21  61 SE8       29.77F WCI  26          
SPRINGFIELD      N/A     30  24  78 SE8       29.77F WCI  22          
$$